Location: Plzen
(49.7500°N, 13.3670°E)
Time: 18:25:26
(UTC+02:00)

ISS - Pass Details

Date: 19 May 2021
Orbit: 417 x 422 km, 51.6° (Epoch: 16 June)

Event Time Altitude Azimuth Distance (km) Brightness Sun altitude
Rises 22:05:30 0° 255° (WSW) 2,360 0.4 -10.0°
Reaches altitude 10° 22:07:35 10° 256° (WSW) 1,498 -0.6 -10.2°
Maximum altitude 22:10:57 83° 342° (NNW) 428 -3.7 -10.6°
Drops below altitude 10° 22:14:20 10° 73° (ENE) 1,505 -1.2 -10.9°
Sets 22:16:27 0° 74° (ENE) 2,372 -0.2 -11.1°
